Regional Weather Roundup
Issued by NWS

Home | Current Version | Previous Version | Graphics & Text | Print | Product List | Glossary Off
Versions: 1 2 3 4 5 6 7 8 9 10 11 12 13 14 15 16 17 18 19 20 21 22 23 24 25 26 27 28 29 30 31 32 33 34 35 36 37 38 39 40 41 42 43 44 45 46 47 48 49 50

276
ASUS43 KMKX 242311
RWRWI

WISCONSIN REGIONAL WEATHER ROUNDUP
NATIONAL WEATHER SERVICE MILWAUKEE/SULLIVAN WI
600 PM CDT TUE MAY 24 2016

NOTE: "FAIR" INDICATES FEW OR NO CLOUDS BELOW 12,000 FEET WITH NO
SIGNIFICANT WEATHER AND/OR OBSTRUCTIONS TO VISIBILITY.

WIZ001-002-006>008-014>016-023>028-250000-
NORTHWEST WISCONSIN

CITY           SKY/WX    TMP DP  RH WIND       PRES   REMARKS
SUPERIOR ARPT  FOG       52  50  94 NE12G17   29.94R VSB 1
ASHLAND        MOSUNNY   65  60  84 NE8       29.93R
HAYWARD        MOSUNNY   78  58  49 NW3       29.91R
SIREN          SUNNY     79  51  37 W3        29.91R
CUMBERLAND     SUNNY     77  50  38 NW6       29.92R
RICE LAKE      MOSUNNY   79  51  37 W5        29.92R
CHETEK         PTSUNNY   80  57  45 CALM      29.90S HX  80
LADYSMITH      SUNNY     79  56  46 W7        29.93R HX  80
EAU CLAIRE     MOSUNNY   83  50  31 W10       29.89S HX  81
MENOMONIE      SUNNY     84  49  29 SW6       29.90R HX  82
NEW RICHMOND   SUNNY     78  47  33 W6        29.91S
OSCEOLA        MOSUNNY   79  57  46 CALM      29.93R HX  80
$$

WIZ003>005-009-010-017-018-250000-
NORTH CENTRAL WISCONSIN

CITY           SKY/WX    TMP DP  RH WIND       PRES   REMARKS
MANITOWISH WTR NOT AVBL
ARBOR VITAE    CLOUDY    72  58  61 N14       29.92R
WOODRUFF       CLOUDY    72  58  61 N14       29.92R
RHINELANDER    MOSUNNY   77  54  44 W10G18    29.92R
EAGLE RIVER      N/A     75  50  41 SW12      29.90R
LAND O LAKES   LGT RAIN  69  56  64 N7        29.92R
PHILLIPS       CLOUDY    77  56  49 W6        29.90R
TOMAHAWK       PTSUNNY   76  53  44 SW6       29.92R
MEDFORD        SUNNY     75  60  58 SW6       29.93S
MERRILL        CLOUDY    77  57  49 W9G16     29.92R
$$

WIZ029-030-035-036-043>047-250000-
CENTRAL WISCONSIN

CITY           SKY/WX    TMP DP  RH WIND       PRES   REMARKS
WAUSAU         CLOUDY    81  55  40 W13       29.90S HX  81
MOSINEE        MOSUNNY   77  57  50 W9        29.93R
MARSHFIELD     MOSUNNY   79  54  41 SW10      29.91S
STEVENS POINT  CLOUDY    78  54  43 W7        29.93R
WAUPACA        MOSUNNY   83  53  34 W9        29.91R HX  82
WAUTOMA        SUNNY     81  56  42 W12G18    29.92  HX  81
WISC RAPIDS    CLOUDY    81  55  40 W7        29.93R HX  81
CAMP DOUGLAS   PTSUNNY   80  62  54 W7        29.92S HX  81
$$

WIZ011>013-019>022-031-037>040-048>050-250000-
NORTHEAST WISCONSIN

CITY           SKY/WX    TMP DP  RH WIND       PRES   REMARKS
ANTIGO         MOSUNNY   75  58  54 W12       29.93R
SHAWANO        MOSUNNY   82  59  46 NW7       29.90S HX  82
OCONTO         MOSUNNY   80  62  53 W10G17    29.88S HX  81
STURGEON BAY   NOT AVBL
GREEN BAY      MOSUNNY   83  57  41 W14       29.89S HX  82
MANITOWOC      CLOUDY    69  58  67 S18       29.92S
APPLETON       PTSUNNY   79  54  41 SW9       29.90R
CLINTONVILLE   MOSUNNY   81  52  36 W9        29.89S HX  80
OSHKOSH        MOSUNNY   79  58  48 W6        29.91S HX  80
$$

WIZ032>034-041-042-053>061-250000-
SOUTHWEST WISCONSIN

CITY           SKY/WX    TMP DP  RH WIND       PRES   REMARKS
LA CROSSE      SUNNY     83  57  41 SE7       29.90F HX  82
SPARTA         PTSUNNY   81  57  44 W6        29.92F HX  81
VIROQUA        SUNNY     81  54  39 CALM      29.94F HX  80
BOSCOBEL       SUNNY     85  58  39 CALM      29.90F HX  84
PRAIRIE DU CHI MOSUNNY   82  56  40 SE3       29.88F HX  82
PLATTEVILLE    MOSUNNY   82  60  48 W6        29.92F HX  82
$$

WIZ056-057-062-063-064-067-068-250000-
SOUTH CENTRAL WISCONSIN

CITY           SKY/WX    TMP DP  RH WIND       PRES   REMARKS
REEDSBURG      MOSUNNY   81  58  46 SW7       29.92F HX  81
BARABOO/DELLS  MOSUNNY   81  56  42 SW8       29.93S HX  81
LONE ROCK      MOSUNNY   83  59  44 VRB7      29.91F HX  83
MINERAL POINT  MOSUNNY   82  55  39 W9        29.93F HX  82
MADISON        PTSUNNY   80  59  48 W8        29.92S HX  81
MIDDLETON      MOSUNNY   82  60  47 W8        29.93S HX  82
WATERTOWN      PTSUNNY   80  60  50 NW6       29.92S HX  81
MONROE         SUNNY     82  55  39 W9        29.92F HX  82
JANESVILLE     MOSUNNY   81  61  50 SE5       29.92S HX  81
$$

WIZ051-052-058>065-066-070>072-250000-
SOUTHEAST WISCONSIN

CITY           SKY/WX    TMP DP  RH WIND       PRES   REMARKS
MILWAUKEE      PTSUNNY   77  59  53 N9        29.91F
WAUKESHA       MOSUNNY   79  57  47 W7        29.94S HX  80
MILWAUKEE/TIMM PTSUNNY   79  55  44 CALM      29.92S
RACINE         CLOUDY    74  50  42 S10       29.93S
BURLINGTON     CLOUDY    83  52  34 SW9G16    29.92S HX  82
KENOSHA        SUNNY     84  52  33 S13       29.91F HX  82
FOND DU LAC    LGT RAIN  73  63  70 S14G28    29.92R
SHEBOYGAN      CLOUDY    72  61  68 S8        29.93S
WEST BEND      MOSUNNY   79  59  50 SW6       29.92S HX  80
JUNEAU         CLOUDY    80  59  48 W13G20    29.94S HX  80
$$

LSZ147-162-250000-
LAKE SUPERIOR

STATION/POSITION TIME  TEMP    WIND        PRES    WAVE
                       AIR SEA DIR/SP/G            HT/PER
                 (UTC) (F)     (DEG/KT/KT) (MB)    (FT/S)
W MID LAKE BUOY  2150   42 38   20/ 12/ 14 1013.8R   0
DEVILS ISLAND    2200   49      40/ 12/ 12 1013.9R
SAXON HARBOR     2240   48     330/  3/  4 1013.5R
$$

LMZ867-665-643>646-250000-
LAKE MICHIGAN

STATION/POSITION TIME  TEMP    WIND        PRES    WAVE
                       AIR SEA DIR/SP/G            HT/PER
                 (UTC) (F)     (DEG/KT/KT) (MB)    (FT/S)
CHAMBERS ISLAND  2200           40/  8/ 12 1012.5R
N MID LAKE BUOY  2150   48 44  300/  2/  4 1012.8R   2/ 4
NORTHPORT PIER   2200   58     310/  7/  9 1012.9R
SISTER BAY       2219           30/ 10/ 13   N/A
ALGOMA LAKESHORE 2201          220/ 11/ 13   N/A
KEWAUNEE LAKESHO 2200   56                   N/A
SHEBOYGAN LAKESH 2200   62     170/  8/  9 1013.7S
PORT WASHINGTON  2200   64     160/  4/  5 1014.2F
S MID LAKE BUOY  2150   58 49  130/ 10/ 10 1013.8F   1
KENOSHA   LAKESH 2200   62     160/  9/ 12 1013.2S
$$

TC  - TEMPERATURE IN CELSIUS
VSB - VISIBILITY IN STATUTE MILES
WCI - WIND CHILL INDEX
HX  - HEAT INDEX





USA.gov is the U.S. government's official web portal to all federal, state and local government web resources and services.